Location: Newark
(7.0858°N, 171.3717°E)
Time: 05:47:21
(UTC+00:00)

Courier 1B Rocket - Pass Details

Date: 02 December 2020
Orbit: 920 x 1202 km, 28.2° (Epoch: 20 January)

Event Time Altitude Azimuth Distance (km) Brightness Sun altitude
Rises 22:37:47 0° 306° (NW) 4,031 7.8 50.8°
Reaches altitude 10° 22:40:46 10° 311° (NW) 3,038 7.3 51.3°
Maximum altitude 22:48:03 53° 26° (NNE) 1,317 6.2 52.5°
Drops below altitude 10° 22:54:51 10° 102° (ESE) 2,841 8.0 53.5°
Sets 22:57:32 0° 107° (ESE) 3,751 8.5 53.9°
